• In Hungary
  • List of Countries
  • For 7 days
  • Water Temperature
  • Satellite Maps
  • Weather Map
  • News
  • Weather Widgets
  • user-avatar
    Login

    Hourly Weather Rostov-na-Donu

    Today, 20 January, Saturday

    Time Temperature Precipitation Wind Pressure Humidity
    00:00 -1°C° 0.1 mm 2 mps 760 mmHg 97%
    01:00 -1°C° 0 mm 3 mps 761 mmHg 97%
    02:00 -1°C° 0 mm 3 mps 761 mmHg 96%
    03:00 -3°C° 0 mm 2 mps 762 mmHg 94%
    04:00 -3°C° 0 mm 2 mps 762 mmHg 94%
    05:00 -3°C° 0 mm 2 mps 763 mmHg 94%
    06:00 -2°C° 0 mm 2 mps 763 mmHg 94%
    07:00 -2°C° 0 mm 2 mps 763 mmHg 94%
    08:00 -3°C° 0 mm 2 mps 763 mmHg 93%
    09:00 -2°C° 0 mm 2 mps 764 mmHg 93%
    10:00 -2°C° 0 mm 2 mps 763 mmHg 94%
    11:00 -1°C° 0 mm 3 mps 763 mmHg 95%
    12:00 0°C° 0 mm 3 mps 763 mmHg 97%
    13:00 -1°C° 0.1 mm 4 mps 763 mmHg 97%
    14:00 0°C° 0.1 mm 4 mps 763 mmHg 98%
    15:00 0°C° 0.1 mm 4 mps 763 mmHg 99%
    16:00 0°C° 0.1 mm 4 mps 763 mmHg 98%
    17:00 0°C° 0.1 mm 4 mps 762 mmHg 97%
    18:00 0°C° 0.1 mm 5 mps 762 mmHg 96%
    19:00 0°C° 0 mm 5 mps 762 mmHg 95%
    20:00 0°C° 0 mm 5 mps 762 mmHg 94%
    21:00 0°C° 0 mm 5 mps 761 mmHg 93%
    22:00 0°C° 0 mm 5 mps 761 mmHg 92%
    23:00 0°C° 0 mm 5 mps 761 mmHg 91%

    Tomorrow, 21 January, Sunday

    Time Temperature Precipitation Wind Pressure Humidity
    00:00 0°C° 0 mm 5 mps 761 mmHg 90%
    01:00 0°C° 0 mm 5 mps 760 mmHg 89%
    02:00 0°C° 0 mm 5 mps 760 mmHg 89%
    03:00 0°C° 0 mm 5 mps 759 mmHg 89%
    04:00 0°C° 0 mm 5 mps 759 mmHg 89%
    05:00 0°C° 0 mm 5 mps 758 mmHg 89%
    06:00 0°C° 0 mm 5 mps 758 mmHg 88%
    07:00 -1°C° 0.4 mm 6 mps 757 mmHg 89%
    08:00 -1°C° 0.4 mm 6 mps 757 mmHg 90%
    09:00 -1°C° 0.4 mm 6 mps 756 mmHg 91%
    10:00 -1°C° 1.4 mm 6 mps 756 mmHg 92%
    11:00 +1°C° 1.4 mm 6 mps 756 mmHg 93%
    12:00 +1°C° 1.4 mm 6 mps 755 mmHg 94%
    13:00 0°C° 0.6 mm 7 mps 756 mmHg 94%
    14:00 +2°C° 0.6 mm 7 mps 756 mmHg 94%
    15:00 +1°C° 0.6 mm 8 mps 757 mmHg 93%
    16:00 0°C° 0 mm 7 mps 758 mmHg 91%
    17:00 -1°C° 0 mm 6 mps 759 mmHg 88%
    18:00 -1°C° 0 mm 5 mps 760 mmHg 85%
    19:00 -1°C° 0 mm 4 mps 761 mmHg 87%
    20:00 -2°C° 0 mm 4 mps 762 mmHg 88%
    21:00 -1°C° 0 mm 3 mps 763 mmHg 89%
    22:00 -1°C° 0 mm 3 mps 763 mmHg 89%
    23:00 -1°C° 0 mm 2 mps 763 mmHg 89%

    Day after tomorrow, 22 January, Monday

    Time Temperature Precipitation Wind Pressure Humidity
    00:00 -2°C° 0 mm 2 mps 763 mmHg 89%
    01:00 -2°C° 0 mm 2 mps 763 mmHg 88%
    02:00 -2°C° 0 mm 3 mps 762 mmHg 87%
    03:00 -2°C° 0 mm 3 mps 762 mmHg 85%
    04:00 -3°C° 0 mm 4 mps 762 mmHg 85%
    05:00 -3°C° 0 mm 4 mps 762 mmHg 85%
    06:00 -3°C° 0 mm 4 mps 761 mmHg 84%
    07:00 -4°C° 0.1 mm 5 mps 761 mmHg 84%
    08:00 -4°C° 0.1 mm 6 mps 761 mmHg 84%
    09:00 -4°C° 0.1 mm 7 mps 761 mmHg 84%
    10:00 -3°C° 0.1 mm 7 mps 761 mmHg 84%
    11:00 -3°C° 0.1 mm 7 mps 760 mmHg 83%
    12:00 -4°C° 0.1 mm 8 mps 759 mmHg 83%
    13:00 -2°C° 0 mm 8 mps 759 mmHg 83%
    14:00 -2°C° 0 mm 8 mps 758 mmHg 82%
    15:00 -3°C° 0 mm 9 mps 757 mmHg 81%
    16:00 -3°C° 0.1 mm 9 mps 757 mmHg 83%
    17:00 -2°C° 0.1 mm 8 mps 757 mmHg 85%
    18:00 -2°C° 0.1 mm 8 mps 757 mmHg 86%
    19:00 -2°C° 0.2 mm 8 mps 757 mmHg 88%
    20:00 -2°C° 0.2 mm 8 mps 756 mmHg 89%
    21:00 -1°C° 0.2 mm 8 mps 756 mmHg 91%
    22:00 -1°C° 0.2 mm 7 mps 756 mmHg 92%
    23:00 -1°C° 0.2 mm 7 mps 756 mmHg 92%

    23 January, Tuesday

    Time Temperature Precipitation Wind Pressure Humidity
    00:00 -1°C° 0.2 mm 7 mps 756 mmHg 93%
    01:00 -1°C° 0.1 mm 7 mps 756 mmHg 93%
    02:00 -1°C° 0.1 mm 6 mps 755 mmHg 93%
    03:00 -1°C° 0.1 mm 6 mps 755 mmHg 93%
    04:00 -1°C° 0.1 mm 6 mps 755 mmHg 94%
    05:00 -1°C° 0.1 mm 6 mps 755 mmHg 94%
    06:00 -1°C° 0.1 mm 6 mps 755 mmHg 94%
    07:00 -1°C° 0.1 mm 6 mps 755 mmHg 94%
    08:00 -1°C° 0.1 mm 6 mps 755 mmHg 94%
    09:00 -2°C° 0.1 mm 6 mps 755 mmHg 94%
    10:00 0°C° 0.4 mm 5 mps 755 mmHg 94%
    11:00 0°C° 0.4 mm 5 mps 755 mmHg 94%
    12:00 0°C° 0.4 mm 5 mps 755 mmHg 94%
    13:00 -1°C° 0.3 mm 6 mps 755 mmHg 94%
    14:00 -1°C° 0.3 mm 6 mps 755 mmHg 94%
    15:00 -1°C° 0.3 mm 6 mps 755 mmHg 93%
    16:00 0°C° 0.1 mm 5 mps 755 mmHg 93%
    17:00 0°C° 0.1 mm 5 mps 755 mmHg 93%
    18:00 0°C° 0.1 mm 5 mps 755 mmHg 93%
    19:00 0°C° 0.7 mm 5 mps 756 mmHg 94%
    20:00 0°C° 0.7 mm 5 mps 756 mmHg 94%
    21:00 0°C° 0.7 mm 5 mps 756 mmHg 94%
    22:00 0°C° 0.6 mm 5 mps 756 mmHg 94%
    23:00 0°C° 0.6 mm 5 mps 756 mmHg 94%

    24 January, Wednesday

    Time Temperature Precipitation Wind Pressure Humidity
    00:00 0°C° 0.6 mm 5 mps 757 mmHg 94%
    01:00 -1°C° 0.5 mm 5 mps 757 mmHg 94%
    02:00 -1°C° 0.5 mm 5 mps 757 mmHg 95%
    03:00 -1°C° 0.5 mm 5 mps 757 mmHg 95%
    04:00 -1°C° 0.6 mm 5 mps 758 mmHg 95%
    05:00 -1°C° 0.6 mm 5 mps 758 mmHg 94%
    06:00 -1°C° 0.6 mm 5 mps 758 mmHg 94%
    07:00 -1°C° 0.6 mm 5 mps 759 mmHg 94%
    08:00 -1°C° 0.6 mm 5 mps 760 mmHg 94%
    09:00 -1°C° 0.6 mm 5 mps 761 mmHg 94%
    10:00 -1°C° 0.3 mm 5 mps 761 mmHg 94%
    11:00 -1°C° 0.3 mm 4 mps 762 mmHg 93%
    12:00 -1°C° 0.3 mm 4 mps 763 mmHg 93%
    13:00 0°C° 0.1 mm 4 mps 764 mmHg 92%
    14:00 0°C° 0.1 mm 4 mps 764 mmHg 91%
    15:00 +1°C° 0.1 mm 3 mps 765 mmHg 90%
    16:00 0°C° 0 mm 3 mps 766 mmHg 89%
    17:00 0°C° 0 mm 3 mps 767 mmHg 88%
    18:00 +1°C° 0 mm 2 mps 767 mmHg 87%
    19:00 -1°C° 0.1 mm 2 mps 768 mmHg 87%
    20:00 -1°C° 0.1 mm 2 mps 769 mmHg 88%
    21:00 -1°C° 0.1 mm 2 mps 770 mmHg 88%
    22:00 -1°C° 0 mm 2 mps 770 mmHg 88%
    23:00 -1°C° 0 mm 2 mps 771 mmHg 88%

    25 January, Thursday

    Time Temperature Precipitation Wind Pressure Humidity
    00:00 -2°C° 0 mm 2 mps 771 mmHg 89%
    01:00 -2°C° 0 mm 2 mps 772 mmHg 89%
    02:00 -2°C° 0 mm 2 mps 772 mmHg 90%
    03:00 -2°C° 0 mm 2 mps 773 mmHg 90%
    04:00 -2°C° 0 mm 2 mps 773 mmHg 91%
    05:00 -4°C° 0 mm 3 mps 773 mmHg 91%
    06:00 -4°C° 0 mm 3 mps 774 mmHg 91%
    07:00 -4°C° 0 mm 4 mps 774 mmHg 91%
    08:00 -4°C° 0 mm 4 mps 775 mmHg 91%
    09:00 -4°C° 0 mm 4 mps 775 mmHg 90%
    10:00 -4°C° 0 mm 4 mps 775 mmHg 89%
    11:00 -4°C° 0 mm 4 mps 775 mmHg 88%
    12:00 -4°C° 0 mm 4 mps 775 mmHg 87%
    13:00 -5°C° 0 mm 4 mps 775 mmHg 86%
    14:00 -5°C° 0 mm 4 mps 775 mmHg 85%
    15:00 -5°C° 0 mm 4 mps 775 mmHg 85%
    16:00 -7°C° 0 mm 4 mps 775 mmHg 85%
    17:00 -7°C° 0 mm 5 mps 775 mmHg 86%
    18:00 -8°C° 0 mm 5 mps 776 mmHg 87%
    19:00 -8°C° 0 mm 5 mps 776 mmHg 86%
    20:00 -10°C° 0 mm 5 mps 776 mmHg 86%
    21:00 -10°C° 0 mm 5 mps 776 mmHg 86%
    22:00 -10°C° 0 mm 5 mps 776 mmHg 86%
    23:00 -10°C° 0 mm 5 mps 776 mmHg 85%
    Show more